| time (UTC) | temp F | wind direction | speed knots | gust knots | rain 1hr in | rain 24hr in | rain mn in | humidity % | barometer mb |
| 20260905071505 | 80 | 83 | 3.5 | 0.0 | 0.00 | 0.00 | 0.00 | 83 | 1010.6 |
| 20260905071005 | 80 | 108 | 3.5 | 0.0 | 0.00 | 0.00 | 0.00 | 83 | 1010.6 |
| 20260905070711 | 80 | 110 | 3.5 | 0.0 | 0.00 | 0.00 | 0.00 | 83 | 1010.6 |
| 20260905070005 | 80 | 130 | 0.0 | 0.0 | 0.00 | 0.00 | 0.00 | 83 | 1010.6 |
| 20260905065713 | 80 | 41 | 11.3 | 0.0 | 0.00 | 0.00 | 0.00 | 83 | 1010.6 |
| 20260905065005 | 80 | 109 | 0.0 | 0.0 | 0.00 | 0.00 | 0.00 | 82 | 1010.6 |
| 20260905064713 | 80 | 48 | 7.8 | 0.0 | 0.00 | 0.00 | 0.00 | 82 | 1010.6 |
| 20260905064005 | 80 | 78 | 3.5 | 0.0 | 0.00 | 0.00 | 0.00 | 82 | 1010.6 |
| 20260905063713 | 80 | 111 | 0.0 | 0.0 | 0.00 | 0.00 | 0.00 | 82 | 1011.0 |
| 20260905063005 | 80 | 85 | 7.8 | 0.0 | 0.00 | 0.00 | 0.00 | 82 | 1010.6 |
| 20260905062505 | 80 | 91 | 0.0 | 0.0 | 0.00 | 0.00 | 0.00 | 82 | 1010.6 |
| 20260905062005 | 80 | 134 | 0.0 | 0.0 | 0.00 | 0.00 | 0.00 | 82 | 1010.6 |
| 20260905061504 | 80 | 120 | 11.3 | 0.0 | 0.00 | 0.00 | 0.00 | 82 | 1010.6 |
| 20260905061005 | 80 | 73 | 3.5 | 0.0 | 0.00 | 0.00 | 0.00 | 82 | 1010.6 |
| 20260905060505 | 80 | 86 | 3.5 | 0.0 | 0.00 | 0.00 | 0.00 | 82 | 1010.6 |
| 20260905060212 | 80 | 106 | 0.0 | 0.0 | 0.00 | 0.00 | 0.00 | 81 | 1010.6 |
| 20260905055505 | 80 | 103 | 0.0 | 0.0 | 0.00 | 0.00 | 0.00 | 81 | 1010.3 |
| 20260905055005 | 80 | 150 | 3.5 | 0.0 | 0.00 | 0.00 | 0.00 | 81 | 1010.6 |
| 20260905054505 | 80 | 141 | 0.0 | 0.0 | 0.00 | 0.00 | 0.00 | 81 | 1010.6 |
| 20260905054005 | 80 | 137 | 0.0 | 0.0 | 0.00 | 0.00 | 0.00 | 80 | 1010.6 |
| 20260905053505 | 80 | 129 | 7.8 | 0.0 | 0.00 | 0.00 | 0.00 | 80 | 1010.6 |
| 20260905053005 | 80 | 64 | 3.5 | 0.0 | 0.00 | 0.00 | 0.00 | 80 | 1010.6 |
| 20260905052505 | 80 | 104 | 7.8 | 0.0 | 0.00 | 0.00 | 0.00 | 80 | 1010.6 |
| 20260905052005 | 80 | 21 | 3.5 | 0.0 | 0.00 | 0.00 | 0.00 | 80 | 1010.6 |
| 20260905051505 | 80 | 97 | 7.8 | 0.0 | 0.00 | 0.00 | 0.00 | 80 | 1010.6 |
| 20260905051005 | 80 | 44 | 3.5 | 0.0 | 0.00 | 0.00 | 0.00 | 80 | 1010.6 |
| 20260905050505 | 80 | 131 | 11.3 | 0.0 | 0.00 | 0.00 | 0.00 | 80 | 1011.0 |
| 20260905045505 | 80 | 28 | 7.8 | 0.0 | 0.00 | 0.00 | 0.00 | 79 | 1010.6 |
| 20260905045005 | 80 | 142 | 0.0 | 0.0 | 0.00 | 0.00 | 0.00 | 79 | 1010.3 |
| 20260905044505 | 80 | 48 | 7.8 | 0.0 | 0.00 | 0.00 | 0.00 | 79 | 1010.3 |
| 20260905044005 | 80 | 38 | 7.8 | 0.0 | 0.00 | 0.00 | 0.00 | 79 | 1010.3 |
| 20260905043505 | 80 | 144 | 11.3 | 0.0 | 0.00 | 0.00 | 0.00 | 79 | 1010.6 |
| 20260905043213 | 80 | 128 | 0.0 | 0.0 | 0.00 | 0.00 | 0.00 | 78 | 1010.6 |
| 20260905042504 | 80 | 59 | 11.3 | 0.0 | 0.00 | 0.00 | 0.00 | 78 | 1010.6 |
| 20260905042005 | 80 | 98 | 3.5 | 0.0 | 0.00 | 0.00 | 0.00 | 78 | 1010.6 |
| 20260905041505 | 80 | 72 | 15.6 | 0.0 | 0.00 | 0.00 | 0.00 | 77 | 1011.0 |
| 20260905041005 | 81 | 334 | 15.6 | 0.0 | 0.00 | 0.00 | 0.00 | 77 | 1011.0 |
| 20260905040505 | 81 | 122 | 3.5 | 0.0 | 0.00 | 0.00 | 0.00 | 77 | 1010.6 |
| 20260905040213 | 81 | 109 | 3.5 | 0.0 | 0.00 | 0.00 | 0.00 | 77 | 1011.0 |
| 20260905035712 | 81 | 46 | 11.3 | 0.0 | 0.00 | 0.00 | 0.00 | 76 | 1010.6 |
| 20260905035005 | 81 | 77 | 15.6 | 0.0 | 0.00 | 0.00 | 0.00 | 76 | 1011.3 |
| 20260905034712 | 81 | 134 | 7.8 | 0.0 | 0.00 | 0.00 | 0.00 | 75 | 1011.0 |
| 20260905034005 | 81 | 51 | 3.5 | 0.0 | 0.00 | 0.00 | 0.00 | 75 | 1011.0 |
| 20260905033505 | 81 | 111 | 3.5 | 0.0 | 0.00 | 0.00 | 0.00 | 75 | 1011.0 |
| 20260905033211 | 81 | 142 | 11.3 | 0.0 | 0.00 | 0.00 | 0.00 | 74 | 1011.0 |
| 20260905032505 | 81 | 57 | 7.8 | 0.0 | 0.00 | 0.00 | 0.00 | 74 | 1010.6 |
| 20260905032213 | 81 | 11 | 7.8 | 0.0 | 0.00 | 0.00 | 0.00 | 74 | 1011.0 |
| 20260905031505 | 81 | 154 | 20.0 | 0.0 | 0.00 | 0.00 | 0.00 | 74 | 1010.6 |
| 20260905031005 | 81 | 82 | 7.8 | 0.0 | 0.00 | 0.00 | 0.00 | 73 | 1010.6 |
| 20260905030505 | 81 | 113 | 3.5 | 0.0 | 0.00 | 0.00 | 0.00 | 73 | 1010.6 |
| 20260905030005 | 81 | 65 | 7.8 | 0.0 | 0.00 | 0.00 | 0.00 | 73 | 1010.6 |
| 20260905025504 | 82 | 37 | 3.5 | 0.0 | 0.00 | 0.00 | 0.00 | 72 | 1010.6 |
| 20260905025005 | 82 | 76 | 7.8 | 0.0 | 0.00 | 0.00 | 0.00 | 72 | 1010.3 |
| 20260905024712 | 82 | 57 | 20.0 | 0.0 | 0.00 | 0.00 | 0.00 | 72 | 1010.3 |
| 20260905024005 | 82 | 159 | 11.3 | 0.0 | 0.00 | 0.00 | 0.00 | 71 | 1010.3 |
| 20260905023505 | 82 | 71 | 3.5 | 0.0 | 0.00 | 0.00 | 0.00 | 71 | 1010.3 |
| 20260905023005 | 82 | 72 | 15.6 | 0.0 | 0.00 | 0.00 | 0.00 | 70 | 1010.6 |
| 20260905022505 | 82 | 85 | 3.5 | 0.0 | 0.00 | 0.00 | 0.00 | 70 | 1010.3 |
| 20260905022005 | 82 | 96 | 3.5 | 0.0 | 0.00 | 0.00 | 0.00 | 69 | 1009.9 |
| 20260905021505 | 82 | 51 | 3.5 | 0.0 | 0.00 | 0.00 | 0.00 | 69 | 1009.6 |
| 20260905021212 | 83 | 67 | 15.6 | 0.0 | 0.00 | 0.00 | 0.00 | 69 | 1009.6 |
| 20260905020504 | 83 | 105 | 3.5 | 0.0 | 0.00 | 0.00 | 0.00 | 68 | 1009.6 |
| 20260905020005 | 83 | 86 | 11.3 | 0.0 | 0.00 | 0.00 | 0.00 | 68 | 1009.6 |
| 20260905015505 | 83 | 49 | 7.8 | 0.0 | 0.00 | 0.00 | 0.00 | 68 | 1009.6 |
| 20260905015005 | 83 | 77 | 15.6 | 0.0 | 0.00 | 0.00 | 0.00 | 67 | 1009.3 |
| 20260905014505 | 83 | 102 | 11.3 | 0.0 | 0.00 | 0.00 | 0.00 | 67 | 1009.3 |
| 20260905014212 | 83 | 333 | 11.3 | 0.0 | 0.00 | 0.00 | 0.00 | 66 | 1009.3 |
| 20260905013505 | 83 | 107 | 11.3 | 0.0 | 0.00 | 0.00 | 0.00 | 66 | 1009.6 |
| 20260905013005 | 83 | 64 | 15.6 | 0.0 | 0.00 | 0.00 | 0.00 | 65 | 1009.6 |
| 20260905012505 | 83 | 98 | 3.5 | 0.0 | 0.00 | 0.00 | 0.00 | 65 | 1009.3 |
| 20260905012212 | 83 | 49 | 23.5 | 0.0 | 0.00 | 0.00 | 0.00 | 65 | 1009.3 |
| 20260905011505 | 83 | 101 | 15.6 | 0.0 | 0.00 | 0.00 | 0.00 | 65 | 1008.9 |
| 20260905011004 | 83 | 137 | 7.8 | 0.0 | 0.00 | 0.00 | 0.00 | 64 | 1009.3 |
| 20260905010505 | 83 | 85 | 15.6 | 0.0 | 0.00 | 0.00 | 0.00 | 64 | 1008.9 |
| 20260905010005 | 84 | 82 | 7.8 | 0.0 | 0.00 | 0.00 | 0.00 | 64 | 1008.9 |
| 20260905005713 | 84 | 11 | 23.5 | 0.0 | 0.00 | 0.00 | 0.00 | 63 | 1008.9 |
| 20260905005005 | 84 | 53 | 7.8 | 0.0 | 0.00 | 0.00 | 0.00 | 63 | 1008.9 |
| 20260905004505 | 85 | 67 | 27.8 | 0.0 | 0.00 | 0.00 | 0.00 | 63 | 1008.9 |
| 20260905004005 | 85 | 80 | 20.0 | 0.0 | 0.00 | 0.00 | 0.00 | 62 | 1008.9 |
| 20260905003505 | 85 | 56 | 23.5 | 0.0 | 0.00 | 0.00 | 0.00 | 61 | 1008.6 |
| 20260905003005 | 86 | 39 | 11.3 | 0.0 | 0.00 | 0.00 | 0.00 | 60 | 1008.6 |
| 20260905002713 | 86 | 84 | 20.0 | 0.0 | 0.00 | 0.00 | 0.00 | 59 | 1008.6 |
| 20260905002212 | 86 | 85 | 27.8 | 0.0 | 0.00 | 0.00 | 0.00 | 58 | 1008.6 |
| 20260905001505 | 86 | 187 | 7.8 | 0.0 | 0.00 | 0.00 | 0.00 | 57 | 1008.6 |
| 20260905001005 | 86 | 100 | 20.0 | 0.0 | 0.00 | 0.00 | 0.00 | 57 | 1008.6 |
| 20260905000505 | 87 | 115 | 7.8 | 0.0 | 0.00 | 0.00 | 0.00 | 55 | 1008.2 |
| 20260905000005 | 88 | 309 | 7.8 | 0.0 | 0.00 | 0.00 | 0.00 | 54 | 1008.2 |
| 20260904235504 | 88 | 168 | 15.6 | 0.0 | 0.00 | 0.00 | 0.00 | 53 | 1008.2 |
| 20260904235005 | 88 | 79 | 23.5 | 0.0 | 0.00 | 0.00 | 0.00 | 51 | 1007.9 |
| 20260904234505 | 89 | 84 | 3.5 | 0.0 | 0.00 | 0.00 | 0.00 | 50 | 1007.9 |
| 20260904234005 | 89 | 103 | 23.5 | 0.0 | 0.00 | 0.00 | 0.00 | 49 | 1007.9 |
| 20260904233505 | 89 | 57 | 3.5 | 0.0 | 0.00 | 0.00 | 0.00 | 49 | 1007.9 |
| 20260904233005 | 89 | 80 | 11.3 | 0.0 | 0.00 | 0.00 | 0.00 | 48 | 1007.9 |
| 20260904232712 | 89 | 156 | 15.6 | 0.0 | 0.00 | 0.00 | 0.00 | 47 | 1007.9 |
| 20260904232211 | 89 | 158 | 7.8 | 0.0 | 0.00 | 0.00 | 0.00 | 46 | 1007.9 |
| 20260904231505 | 90 | 76 | 11.3 | 0.0 | 0.00 | 0.00 | 0.00 | 46 | 1007.9 |
| 20260904231005 | 90 | 45 | 20.0 | 0.0 | 0.00 | 0.00 | 0.00 | 46 | 1007.9 |
| 20260904230505 | 90 | 239 | 7.8 | 0.0 | 0.00 | 0.00 | 0.00 | 45 | 1007.9 |
| 20260904230005 | 90 | 45 | 15.6 | 0.0 | 0.00 | 0.00 | 0.00 | 45 | 1007.6 |
| 20260904225505 | 90 | 144 | 11.3 | 0.0 | 0.00 | 0.00 | 0.00 | 44 | 1007.6 |
| 20260904225005 | 91 | 105 | 7.8 | 0.0 | 0.00 | 0.00 | 0.00 | 45 | 1007.6 |
| 20260904224505 | 91 | 72 | 15.6 | 0.0 | 0.00 | 0.00 | 0.00 | 43 | 1007.9 |
| 20260904224005 | 92 | 80 | 20.0 | 0.0 | 0.00 | 0.00 | 0.00 | 42 | 1007.9 |
| 20260904223505 | 92 | 67 | 20.0 | 0.0 | 0.00 | 0.00 | 0.00 | 42 | 1007.6 |
| 20260904223005 | 92 | 73 | 11.3 | 0.0 | 0.00 | 0.00 | 0.00 | 41 | 1007.6 |
| 20260904222505 | 92 | 86 | 11.3 | 0.0 | 0.00 | 0.00 | 0.00 | 41 | 1007.9 |
| 20260904222005 | 92 | 113 | 11.3 | 0.0 | 0.00 | 0.00 | 0.00 | 41 | 1007.6 |
| 20260904221505 | 92 | 121 | 11.3 | 0.0 | 0.00 | 0.00 | 0.00 | 40 | 1007.6 |
| 20260904221005 | 92 | 98 | 11.3 | 0.0 | 0.00 | 0.00 | 0.00 | 40 | 1007.6 |
| 20260904220505 | 91 | 140 | 7.8 | 0.0 | 0.00 | 0.00 | 0.00 | 42 | 1007.6 |
| 20260904220005 | 92 | 7 | 20.0 | 0.0 | 0.00 | 0.00 | 0.00 | 42 | 1007.6 |
| 20260904215505 | 92 | 148 | 20.0 | 0.0 | 0.00 | 0.00 | 0.00 | 41 | 1007.6 |
| 20260904215005 | 93 | 63 | 11.3 | 0.0 | 0.00 | 0.00 | 0.00 | 38 | 1007.6 |
| 20260904214505 | 94 | 190 | 0.0 | 0.0 | 0.00 | 0.00 | 0.00 | 37 | 1007.6 |
| 20260904214005 | 92 | 23 | 15.6 | 0.0 | 0.00 | 0.00 | 0.00 | 39 | 1007.6 |
| 20260904213505 | 92 | 149 | 3.5 | 0.0 | 0.00 | 0.00 | 0.00 | 40 | 1007.6 |
| 20260904213005 | 94 | 102 | 11.3 | 0.0 | 0.00 | 0.00 | 0.00 | 38 | 1007.6 |
| 20260904212505 | 94 | 92 | 20.0 | 0.0 | 0.00 | 0.00 | 0.00 | 37 | 1007.6 |
| 20260904212005 | 94 | 162 | 3.5 | 0.0 | 0.00 | 0.00 | 0.00 | 38 | 1007.6 |
| 20260904211505 | 93 | 139 | 15.6 | 0.0 | 0.00 | 0.00 | 0.00 | 39 | 1007.6 |
| 20260904211212 | 94 | 74 | 3.5 | 0.0 | 0.00 | 0.00 | 0.00 | 37 | 1007.6 |
| 20260904210505 | 94 | 77 | 3.5 | 0.0 | 0.00 | 0.00 | 0.00 | 36 | 1007.9 |
| 20260904210005 | 94 | 122 | 11.3 | 0.0 | 0.00 | 0.00 | 0.00 | 36 | 1007.6 |
| 20260904205504 | 93 | 150 | 7.8 | 0.0 | 0.00 | 0.00 | 0.00 | 36 | 1007.9 |
| 20260904205005 | 93 | 75 | 7.8 | 0.0 | 0.00 | 0.00 | 0.00 | 36 | 1007.9 |
| 20260904204505 | 93 | 174 | 27.8 | 0.0 | 0.00 | 0.00 | 0.00 | 35 | 1007.9 |
| 20260904204005 | 93 | 101 | 7.8 | 0.0 | 0.00 | 0.00 | 0.00 | 35 | 1007.9 |
| 20260904203505 | 93 | 69 | 3.5 | 0.0 | 0.00 | 0.00 | 0.00 | 35 | 1007.9 |
| 20260904203212 | 93 | 124 | 7.8 | 0.0 | 0.00 | 0.00 | 0.00 | 36 | 1007.9 |
| 20260904202505 | 93 | 165 | 3.5 | 0.0 | 0.00 | 0.00 | 0.00 | 36 | 1007.9 |
| 20260904202005 | 93 | 150 | 27.8 | 0.0 | 0.00 | 0.00 | 0.00 | 36 | 1008.2 |
| 20260904201711 | 93 | 96 | 3.5 | 0.0 | 0.00 | 0.00 | 0.00 | 36 | 1008.2 |
| 20260904201005 | 93 | 68 | 3.5 | 0.0 | 0.00 | 0.00 | 0.00 | 37 | 1007.9 |
| 20260904200505 | 94 | 120 | 0.0 | 0.0 | 0.00 | 0.00 | 0.00 | 36 | 1008.2 |
| 20260904200005 | 94 | 175 | 7.8 | 0.0 | 0.00 | 0.00 | 0.00 | 35 | 1008.2 |
| 20260904195505 | 94 | 158 | 7.8 | 0.0 | 0.00 | 0.00 | 0.00 | 34 | 1008.2 |
| 20260904195005 | 93 | 108 | 11.3 | 0.0 | 0.00 | 0.00 | 0.00 | 34 | 1008.6 |
| 20260904194504 | 92 | 113 | 11.3 | 0.0 | 0.00 | 0.00 | 0.00 | 37 | 1008.6 |
| 20260904194005 | 92 | 162 | 3.5 | 0.0 | 0.00 | 0.00 | 0.00 | 39 | 1008.6 |
| 20260904193505 | 92 | 62 | 3.5 | 0.0 | 0.00 | 0.00 | 0.00 | 38 | 1008.6 |
| 20260904193212 | 93 | 166 | 3.5 | 0.0 | 0.00 | 0.00 | 0.00 | 41 | 1008.6 |
| 20260904192713 | 93 | 30 | 7.8 | 0.0 | 0.00 | 0.00 | 0.00 | 37 | 1008.9 |
| 20260904192005 | 94 | 127 | 7.8 | 0.0 | 0.00 | 0.00 | 0.00 | 36 | 1008.9 |
| 20260904191505 | 93 | 178 | 7.8 | 0.0 | 0.00 | 0.00 | 0.00 | 39 | 1008.9 |
| 20260904191005 | 93 | 69 | 15.6 | 0.0 | 0.00 | 0.00 | 0.00 | 40 | 1008.9 |
| 20260904190505 | 93 | 111 | 3.5 | 0.0 | 0.00 | 0.00 | 0.00 | 41 | 1008.9 |
| 20260904190005 | 93 | 40 | 3.5 | 0.0 | 0.00 | 0.00 | 0.00 | 40 | 1008.9 |
| 20260904185504 | 92 | 169 | 23.5 | 0.0 | 0.00 | 0.00 | 0.00 | 41 | 1008.9 |
| 20260904185005 | 92 | 151 | 3.5 | 0.0 | 0.00 | 0.00 | 0.00 | 43 | 1009.3 |
| 20260904184713 | 91 | 44 | 7.8 | 0.0 | 0.00 | 0.00 | 0.00 | 44 | 1009.3 |
| 20260904184005 | 91 | 37 | 7.8 | 0.0 | 0.00 | 0.00 | 0.00 | 44 | 1009.3 |
| 20260904183505 | 92 | 39 | 3.5 | 0.0 | 0.00 | 0.00 | 0.00 | 44 | 1009.3 |
| 20260904183212 | 92 | 139 | 7.8 | 0.0 | 0.00 | 0.00 | 0.00 | 41 | 1009.6 |
| 20260904182505 | 92 | 93 | 3.5 | 0.0 | 0.00 | 0.00 | 0.00 | 41 | 1009.6 |
| 20260904182005 | 92 | 153 | 7.8 | 0.0 | 0.00 | 0.00 | 0.00 | 41 | 1009.3 |
| 20260904181505 | 92 | 118 | 15.6 | 0.0 | 0.00 | 0.00 | 0.00 | 42 | 1009.6 |
| 20260904181005 | 92 | 48 | 20.0 | 0.0 | 0.00 | 0.00 | 0.00 | 42 | 1009.9 |
| 20260904180505 | 92 | 42 | 11.3 | 0.0 | 0.00 | 0.00 | 0.00 | 42 | 1009.9 |
| 20260904180005 | 92 | 130 | 0.0 | 0.0 | 0.00 | 0.00 | 0.00 | 43 | 1009.6 |
| 20260904175505 | 92 | 122 | 7.8 | 0.0 | 0.00 | 0.00 | 0.00 | 42 | 1009.9 |
| 20260904175213 | 92 | 118 | 3.5 | 0.0 | 0.00 | 0.00 | 0.00 | 43 | 1009.9 |
| 20260904174505 | 91 | 40 | 3.5 | 0.0 | 0.00 | 0.00 | 0.00 | 44 | 1009.9 |
| 20260904174005 | 91 | 84 | 7.8 | 0.0 | 0.00 | 0.00 | 0.00 | 44 | 1010.3 |
| 20260904173505 | 90 | 183 | 11.3 | 0.0 | 0.00 | 0.00 | 0.00 | 46 | 1010.3 |
| 20260904173004 | 90 | 71 | 11.3 | 0.0 | 0.00 | 0.00 | 0.00 | 47 | 1010.3 |
| 20260904172505 | 91 | 174 | 11.3 | 0.0 | 0.00 | 0.00 | 0.00 | 43 | 1010.6 |
| 20260904172005 | 90 | 177 | 7.8 | 0.0 | 0.00 | 0.00 | 0.00 | 46 | 1010.3 |
| 20260904171505 | 89 | 85 | 11.3 | 0.0 | 0.00 | 0.00 | 0.00 | 48 | 1010.3 |
| 20260904171005 | 89 | 148 | 3.5 | 0.0 | 0.00 | 0.00 | 0.00 | 48 | 1010.3 |
| 20260904170505 | 90 | 179 | 11.3 | 0.0 | 0.00 | 0.00 | 0.00 | 47 | 1010.6 |
| 20260904170005 | 89 | 125 | 3.5 | 0.0 | 0.00 | 0.00 | 0.00 | 49 | 1010.6 |
| 20260904165505 | 89 | 99 | 11.3 | 0.0 | 0.00 | 0.00 | 0.00 | 50 | 1010.6 |
| 20260904165005 | 89 | 149 | 15.6 | 0.0 | 0.00 | 0.00 | 0.00 | 49 | 1010.6 |
| 20260904164505 | 89 | 119 | 15.6 | 0.0 | 0.00 | 0.00 | 0.00 | 51 | 1010.6 |
| 20260904164005 | 88 | 172 | 23.5 | 0.0 | 0.00 | 0.00 | 0.00 | 52 | 1010.6 |
| 20260904163505 | 89 | 21 | 11.3 | 0.0 | 0.00 | 0.00 | 0.00 | 50 | 1011.0 |
| 20260904163005 | 89 | 32 | 7.8 | 0.0 | 0.00 | 0.00 | 0.00 | 50 | 1011.0 |
| 20260904162505 | 89 | 177 | 11.3 | 0.0 | 0.00 | 0.00 | 0.00 | 52 | 1010.6 |
| 20260904162005 | 88 | 128 | 3.5 | 0.0 | 0.00 | 0.00 | 0.00 | 54 | 1010.6 |
| 20260904161505 | 89 | 22 | 11.3 | 0.0 | 0.00 | 0.00 | 0.00 | 54 | 1010.6 |
| 20260904161005 | 88 | 173 | 3.5 | 0.0 | 0.00 | 0.00 | 0.00 | 55 | 1011.0 |
| 20260904160505 | 87 | 187 | 7.8 | 0.0 | 0.00 | 0.00 | 0.00 | 56 | 1010.6 |
| 20260904160005 | 86 | 58 | 11.3 | 0.0 | 0.00 | 0.00 | 0.00 | 58 | 1011.0 |
| 20260904155505 | 86 | 60 | 7.8 | 0.0 | 0.00 | 0.00 | 0.00 | 58 | 1010.6 |
| 20260904155005 | 86 | 138 | 15.6 | 0.0 | 0.00 | 0.00 | 0.00 | 58 | 1010.6 |
| 20260904154713 | 86 | 119 | 7.8 | 0.0 | 0.00 | 0.00 | 0.00 | 59 | 1010.6 |
| 20260904154212 | 87 | 40 | 11.3 | 0.0 | 0.00 | 0.00 | 0.00 | 56 | 1010.6 |
| 20260904153505 | 86 | 105 | 7.8 | 0.0 | 0.00 | 0.00 | 0.00 | 59 | 1011.0 |
| 20260904153005 | 86 | 64 | 11.3 | 0.0 | 0.00 | 0.00 | 0.00 | 61 | 1011.0 |
| 20260904152713 | 85 | 99 | 20.0 | 0.0 | 0.00 | 0.00 | 0.00 | 61 | 1011.0 |
| 20260904152005 | 85 | 29 | 15.6 | 0.0 | 0.00 | 0.00 | 0.00 | 64 | 1011.0 |
| 20260904151711 | 84 | 110 | 11.3 | 0.0 | 0.00 | 0.00 | 0.00 | 64 | 1011.0 |
| 20260904151005 | 84 | 64 | 11.3 | 0.0 | 0.00 | 0.00 | 0.00 | 67 | 1011.0 |
| 20260904150505 | 84 | 96 | 7.8 | 0.0 | 0.00 | 0.00 | 0.00 | 66 | 1011.0 |
| 20260904150005 | 84 | 111 | 11.3 | 0.0 | 0.00 | 0.00 | 0.00 | 67 | 1010.6 |
| 20260904145713 | 83 | 114 | 23.5 | 0.0 | 0.00 | 0.00 | 0.00 | 68 | 1010.6 |
| 20260904145005 | 83 | 158 | 11.3 | 0.0 | 0.00 | 0.00 | 0.00 | 69 | 1010.6 |
| 20260904144505 | 83 | 175 | 7.8 | 0.0 | 0.00 | 0.00 | 0.00 | 71 | 1010.6 |
| 20260904144005 | 82 | 169 | 7.8 | 0.0 | 0.00 | 0.00 | 0.00 | 73 | 1010.6 |
| 20260904143505 | 82 | 13 | 3.5 | 0.0 | 0.00 | 0.00 | 0.00 | 75 | 1010.6 |
| 20260904143005 | 82 | 160 | 7.8 | 0.0 | 0.00 | 0.00 | 0.00 | 74 | 1011.0 |
| 20260904142504 | 82 | 116 | 7.8 | 0.0 | 0.00 | 0.00 | 0.00 | 75 | 1010.6 |
| 20260904142005 | 81 | 101 | 15.6 | 0.0 | 0.00 | 0.00 | 0.00 | 76 | 1011.0 |
| 20260904141505 | 81 | 166 | 7.8 | 0.0 | 0.00 | 0.00 | 0.00 | 77 | 1010.6 |
| 20260904141005 | 81 | 142 | 7.8 | 0.0 | 0.00 | 0.00 | 0.00 | 77 | 1010.6 |
| 20260904140713 | 81 | 148 | 11.3 | 0.0 | 0.00 | 0.00 | 0.00 | 77 | 1010.6 |
| 20260904140004 | 80 | 160 | 11.3 | 0.0 | 0.00 | 0.00 | 0.00 | 78 | 1010.6 |
| 20260904135505 | 80 | 78 | 7.8 | 0.0 | 0.00 | 0.00 | 0.00 | 79 | 1010.6 |
| 20260904135212 | 80 | 133 | 7.8 | 0.0 | 0.00 | 0.00 | 0.00 | 79 | 1010.6 |
| 20260904134505 | 80 | 101 | 11.3 | 0.0 | 0.00 | 0.00 | 0.00 | 79 | 1010.6 |
| 20260904134005 | 80 | 47 | 3.5 | 0.0 | 0.00 | 0.00 | 0.00 | 80 | 1010.6 |
| 20260904133505 | 80 | 129 | 3.5 | 0.0 | 0.00 | 0.00 | 0.00 | 81 | 1010.6 |
| 20260904133005 | 80 | 134 | 3.5 | 0.0 | 0.00 | 0.00 | 0.00 | 81 | 1010.6 |
| 20260904132505 | 80 | 94 | 7.8 | 0.0 | 0.00 | 0.00 | 0.00 | 81 | 1010.6 |
| 20260904132005 | 79 | 127 | 0.0 | 0.0 | 0.00 | 0.00 | 0.00 | 82 | 1010.3 |
| 20260904131504 | 79 | 88 | 3.5 | 0.0 | 0.00 | 0.00 | 0.00 | 82 | 1010.6 |
| 20260904131005 | 79 | 24 | 7.8 | 0.0 | 0.00 | 0.00 | 0.00 | 83 | 1010.3 |
| 20260904130505 | 78 | 111 | 0.0 | 0.0 | 0.00 | 0.00 | 0.00 | 83 | 1010.6 |
| 20260904130005 | 78 | 76 | 3.5 | 0.0 | 0.00 | 0.00 | 0.00 | 84 | 1010.3 |
| 20260904125505 | 78 | 110 | 3.5 | 0.0 | 0.00 | 0.00 | 0.00 | 84 | 1010.3 |
| 20260904125005 | 78 | 141 | 0.0 | 0.0 | 0.00 | 0.00 | 0.00 | 84 | 1010.3 |
| 20260904124505 | 78 | 53 | 7.8 | 0.0 | 0.00 | 0.00 | 0.00 | 85 | 1010.3 |
| 20260904124005 | 78 | 149 | 0.0 | 0.0 | 0.00 | 0.00 | 0.00 | 85 | 1010.3 |
| 20260904123712 | 78 | 115 | 3.5 | 0.0 | 0.00 | 0.00 | 0.00 | 85 | 1010.3 |
| 20260904123005 | 77 | 34 | 3.5 | 0.0 | 0.00 | 0.00 | 0.00 | 86 | 1009.9 |
| 20260904122505 | 77 | 116 | 7.8 | 0.0 | 0.00 | 0.00 | 0.00 | 86 | 1010.3 |
| 20260904122211 | 77 | 73 | 3.5 | 0.0 | 0.00 | 0.00 | 0.00 | 86 | 1010.3 |
| 20260904121505 | 77 | 120 | 0.0 | 0.0 | 0.00 | 0.00 | 0.00 | 86 | 1009.6 |
| 20260904121005 | 77 | 110 | 0.0 | 0.0 | 0.00 | 0.00 | 0.00 | 86 | 1009.9 |
| 20260904120505 | 77 | 114 | 3.5 | 0.0 | 0.00 | 0.00 | 0.00 | 86 | 1009.9 |
| 20260904120213 | 77 | 119 | 7.8 | 0.0 | 0.00 | 0.00 | 0.00 | 86 | 1009.6 |
| 20260904115505 | 77 | 115 | 0.0 | 0.0 | 0.00 | 0.00 | 0.00 | 86 | 1009.6 |
| 20260904115005 | 77 | 124 | 0.0 | 0.0 | 0.00 | 0.00 | 0.00 | 86 | 1009.6 |
| 20260904114505 | 77 | 93 | 7.8 | 0.0 | 0.00 | 0.00 | 0.00 | 86 | 1009.6 |
| 20260904114004 | 78 | 115 | 0.0 | 0.0 | 0.00 | 0.00 | 0.00 | 86 | 1009.3 |
| 20260904113505 | 78 | 58 | 3.5 | 0.0 | 0.00 | 0.00 | 0.00 | 86 | 1009.6 |
| 20260904113005 | 78 | 102 | 7.8 | 0.0 | 0.00 | 0.00 | 0.00 | 86 | 1009.6 |
| 20260904112505 | 78 | 138 | 0.0 | 0.0 | 0.00 | 0.00 | 0.00 | 86 | 1009.6 |
| 20260904112005 | 78 | 108 | 0.0 | 0.0 | 0.00 | 0.00 | 0.00 | 85 | 1009.3 |
| 20260904111505 | 78 | 121 | 0.0 | 0.0 | 0.00 | 0.00 | 0.00 | 85 | 1009.6 |
| 20260904111005 | 78 | 134 | 0.0 | 0.0 | 0.00 | 0.00 | 0.00 | 85 | 1009.6 |
| 20260904110505 | 78 | 111 | 0.0 | 0.0 | 0.00 | 0.00 | 0.00 | 85 | 1009.6 |
| 20260904110005 | 78 | 91 | 0.0 | 0.0 | 0.00 | 0.00 | 0.00 | 85 | 1009.6 |
| 20260904105504 | 78 | 107 | 0.0 | 0.0 | 0.00 | 0.00 | 0.00 | 85 | 1009.6 |
| 20260904105213 | 78 | 124 | 0.0 | 0.0 | 0.00 | 0.00 | 0.00 | 84 | 1009.6 |
| 20260904104505 | 78 | 89 | 0.0 | 0.0 | 0.00 | 0.00 | 0.00 | 84 | 1009.6 |
| 20260904104004 | 78 | 93 | 3.5 | 0.0 | 0.00 | 0.00 | 0.00 | 84 | 1009.6 |
| 20260904103714 | 79 | 48 | 7.8 | 0.0 | 0.00 | 0.00 | 0.00 | 83 | 1009.6 |
| 20260904103005 | 79 | 128 | 0.0 | 0.0 | 0.00 | 0.00 | 0.00 | 83 | 1009.3 |
| 20260904102711 | 79 | 109 | 0.0 | 0.0 | 0.00 | 0.00 | 0.00 | 82 | 1009.3 |
| 20260904102005 | 79 | 150 | 7.8 | 0.0 | 0.00 | 0.00 | 0.00 | 82 | 1009.3 |
| 20260904101505 | 79 | 92 | 3.5 | 0.0 | 0.00 | 0.00 | 0.00 | 82 | 1008.9 |
| 20260904101005 | 79 | 116 | 3.5 | 0.0 | 0.00 | 0.00 | 0.00 | 82 | 1009.3 |
| 20260904100713 | 79 | 116 | 0.0 | 0.0 | 0.00 | 0.00 | 0.00 | 82 | 1009.3 |
| 20260904100212 | 79 | 71 | 0.0 | 0.0 | 0.00 | 0.00 | 0.00 | 82 | 1009.6 |
| 20260904095711 | 79 | 121 | 3.5 | 0.0 | 0.00 | 0.00 | 0.00 | 82 | 1009.3 |
| 20260904095005 | 79 | 179 | 7.8 | 0.0 | 0.00 | 0.00 | 0.00 | 82 | 1009.3 |
| 20260904094711 | 80 | 126 | 3.5 | 0.0 | 0.00 | 0.00 | 0.00 | 81 | 1009.6 |
| 20260904094005 | 80 | 162 | 7.8 | 0.0 | 0.00 | 0.00 | 0.00 | 81 | 1009.6 |
| 20260904093505 | 80 | 115 | 3.5 | 0.0 | 0.00 | 0.00 | 0.00 | 81 | 1009.6 |
| 20260904093212 | 80 | 118 | 3.5 | 0.0 | 0.00 | 0.00 | 0.00 | 81 | 1009.6 |
| 20260904092713 | 80 | 105 | 0.0 | 0.0 | 0.00 | 0.00 | 0.00 | 81 | 1009.3 |
| 20260904092005 | 80 | 91 | 3.5 | 0.0 | 0.00 | 0.00 | 0.00 | 81 | 1009.3 |
| 20260904091505 | 80 | 74 | 3.5 | 0.0 | 0.00 | 0.00 | 0.00 | 81 | 1009.6 |
| 20260904091005 | 80 | 95 | 7.8 | 0.0 | 0.00 | 0.00 | 0.00 | 80 | 1009.6 |
| 20260904090713 | 80 | 53 | 0.0 | 0.0 | 0.00 | 0.00 | 0.00 | 80 | 1009.3 |
| 20260904090005 | 80 | 28 | 3.5 | 0.0 | 0.00 | 0.00 | 0.00 | 80 | 1009.6 |
| 20260904085505 | 80 | 120 | 3.5 | 0.0 | 0.00 | 0.00 | 0.00 | 80 | 1009.6 |
| 20260904085005 | 80 | 188 | 7.8 | 0.0 | 0.00 | 0.00 | 0.00 | 80 | 1009.6 |
| 20260904084505 | 80 | 84 | 3.5 | 0.0 | 0.00 | 0.00 | 0.00 | 79 | 1009.6 |
| 20260904084212 | 80 | 99 | 11.3 | 0.0 | 0.00 | 0.00 | 0.00 | 79 | 1009.6 |
| 20260904083505 | 80 | 121 | 3.5 | 0.0 | 0.00 | 0.00 | 0.00 | 80 | 1009.6 |
| 20260904083005 | 80 | 148 | 7.8 | 0.0 | 0.00 | 0.00 | 0.00 | 80 | 1009.6 |
| 20260904082504 | 80 | 113 | 0.0 | 0.0 | 0.00 | 0.00 | 0.00 | 80 | 1009.6 |
| 20260904082005 | 80 | 168 | 7.8 | 0.0 | 0.00 | 0.00 | 0.00 | 81 | 1009.9 |
| 20260904081505 | 80 | 129 | 0.0 | 0.0 | 0.00 | 0.00 | 0.00 | 80 | 1009.9 |
| 20260904081005 | 80 | 146 | 3.5 | 0.0 | 0.00 | 0.00 | 0.00 | 80 | 1009.9 |
| 20260904080505 | 80 | 124 | 0.0 | 0.0 | 0.00 | 0.00 | 0.00 | 80 | 1009.9 |
| 20260904080005 | 80 | 22 | 3.5 | 0.0 | 0.00 | 0.00 | 0.00 | 80 | 1009.9 |
| 20260904075505 | 80 | 27 | 3.5 | 0.0 | 0.00 | 0.00 | 0.00 | 80 | 1009.9 |
| 20260904075005 | 80 | 145 | 0.0 | 0.0 | 0.00 | 0.00 | 0.00 | 80 | 1009.9 |
| 20260904074712 | 80 | 121 | 3.5 | 0.0 | 0.00 | 0.00 | 0.00 | 80 | 1009.9 |
| 20260904074005 | 80 | 87 | 3.5 | 0.0 | 0.00 | 0.00 | 0.00 | 80 | 1009.9 |
| 20260904073505 | 80 | 115 | 0.0 | 0.0 | 0.00 | 0.00 | 0.00 | 80 | 1009.9 |
| 20260904073211 | 80 | 87 | 3.5 | 0.0 | 0.00 | 0.00 | 0.00 | 80 | 1009.9 |
| 20260904072505 | 80 | 60 | 7.8 | 0.0 | 0.00 | 0.00 | 0.00 | 80 | 1010.3 |
| 20260904072005 | 80 | 99 | 0.0 | 0.0 | 0.00 | 0.00 | 0.00 | 80 | 1010.3 |